Morgantown, WV

8:41 AM EST on February 28, 2017 (GMT -0500)
Morgantown Municipal-Hart

Weather History for KMGW - October, 2012

Change the Weather History Date:

Sunday, October 7, 2012

  Actual Average Record
Temperature  
Mean Temperature 46 °F 57 °F  
Max Temperature 53 °F 68 °F 87 °F (2007)
Min Temperature 38 °F 46 °F 27 °F (1964)
Degree Days  
Heating Degree Days 19 9  
Month to date heating degree days 39 54  
Since 1 July heating degree days 139 151  
Cooling Degree Days 0 1  
Month to date cooling degree days 13 7  
Year to date cooling degree days 1125 808  
Moisture  
Dew Point 41 °F    
Average Humidity 82    
Maximum Humidity 100    
Minimum Humidity 63    
Precipitation  
Precipitation 0.03 in 0.09 in 1.34 in (1976)
Month to date precipitation 0.49 0.66  
Year to date precipitation 24.47 33.34  
Sea Level Pressure  
Sea Level Pressure 30.13 in    
Wind  
Wind Speed 2 mph (WNW)    
Max Wind Speed 8 mph    
Max Gust Speed 15 mph    
Visibility 10 miles    
Events Rain    
T = Trace of Precipitation, MM = Missing Value Source: NWS Daily Summary

Daily Weather History Graph

Daily Weather History Graph

Search for Another Location

Airport or City:

Trip Planner

Search our weather history database for the weather conditions in past years. The results will help you decide how hot, cold, wet, or windy it might be!

Date:

Astronomy

Oct. 07, 2012 Rise Set
Actual Time 7:22 AM EDT 6:51 PM EDT
Civil Twilight 6:55 AM EDT 7:18 PM EDT
Nautical Twilight 6:24 AM EDT 7:49 PM EDT
Astronomical Twilight 5:52 AM EDT 8:21 PM EDT
Moon No Moon Rise 1:57 PM EDT (10/7)
Length of Visible Light 12h 23m
Length of Day
11h 29m
Waning Gibbous, 56% of the Moon is Illuminated
Oct 7
Waning Gibbous
Oct 8
Last Quarter
Oct 15
New
Oct 21
First Quarter
Oct 29
Full

Hourly Weather History & Observations

Time (EDT) Temp. Windchill Dew Point Humidity Pressure Visibility Wind Dir Wind Speed Gust Speed Precip Events Conditions
12:53 AM 44.1 °F - 39.0 °F 82% 30.12 in 10.0 mi Calm Calm - N/A   Clear
1:53 AM 43.0 °F - 41.0 °F 93% 30.10 in 10.0 mi Calm Calm - N/A   Clear
2:53 AM 44.1 °F 41.5 °F 42.1 °F 93% 30.08 in 10.0 mi SSE 4.6 mph - N/A   Partly Cloudy
3:53 AM 45.0 °F - 41.0 °F 86% 30.09 in 10.0 mi Calm Calm - N/A   Scattered Clouds
4:53 AM 45.0 °F - 41.0 °F 86% 30.09 in 10.0 mi Calm Calm - N/A   Partly Cloudy
5:53 AM 44.1 °F 42.5 °F 42.1 °F 93% 30.08 in 10.0 mi NNW 3.5 mph - N/A   Overcast
6:53 AM 45.0 °F - 42.1 °F 90% 30.09 in 10.0 mi Calm Calm - N/A   Overcast
7:53 AM 45.0 °F - 43.0 °F 93% 30.09 in 10.0 mi Calm Calm - N/A   Overcast
8:53 AM 46.0 °F - 43.0 °F 89% 30.10 in 10.0 mi Calm Calm - N/A   Overcast
9:53 AM 48.0 °F - 42.1 °F 80% 30.12 in 10.0 mi Calm Calm - N/A   Overcast
10:53 AM 48.9 °F - 42.1 °F 77% 30.10 in 10.0 mi ENE 3.5 mph - N/A   Overcast
11:53 AM 52.0 °F - 41.0 °F 66% 30.09 in 10.0 mi Calm Calm - N/A   Overcast
12:53 PM 52.0 °F - 42.1 °F 69% 30.09 in 10.0 mi SW 3.5 mph - N/A   Overcast
1:53 PM 52.0 °F - 39.9 °F 63% 30.09 in 10.0 mi Variable 3.5 mph - N/A   Overcast
2:53 PM 51.1 °F - 39.9 °F 66% 30.09 in 10.0 mi Variable 5.8 mph - N/A   Overcast
3:53 PM 46.9 °F - 42.1 °F 83% 30.12 in 9.0 mi NW 4.6 mph - 0.01 in Rain Light Rain
4:26 PM 46.4 °F 44.3 °F 42.8 °F 87% 30.12 in 7.0 mi WNW 4.6 mph - 0.01 in Rain Light Rain
4:53 PM 45.0 °F 43.5 °F 41.0 °F 86% 30.14 in 10.0 mi WNW 3.5 mph - 0.02 in   Overcast
5:04 PM 44.6 °F - 41.0 °F 87% 30.13 in 10.0 mi Calm Calm - N/A   Overcast
5:11 PM 44.6 °F 43.1 °F 39.2 °F 81% 30.13 in 10.0 mi NW 3.5 mph - N/A   Overcast
5:20 PM 44.6 °F 43.1 °F 41.0 °F 87% 30.13 in 10.0 mi WNW 3.5 mph - N/A   Overcast
5:50 PM 44.6 °F 43.1 °F 41.0 °F 87% 30.15 in 10.0 mi WNW 3.5 mph - N/A   Overcast
5:53 PM 45.0 °F 43.5 °F 39.9 °F 82% 30.16 in 10.0 mi Variable 3.5 mph - N/A   Overcast
6:20 PM 44.6 °F - 39.2 °F 81% 30.15 in 10.0 mi Calm Calm - N/A   Overcast
6:53 PM 45.0 °F - 37.9 °F 76% 30.17 in 10.0 mi Calm Calm - N/A   Overcast
7:53 PM 43.0 °F - 37.9 °F 82% 30.18 in 10.0 mi Calm Calm - N/A   Clear
8:53 PM 41.0 °F - 39.0 °F 93% 30.20 in 10.0 mi Calm Calm - N/A   Mostly Cloudy
9:53 PM 41.0 °F - 39.9 °F 96% 30.21 in 6.0 mi Calm Calm - N/A   Overcast
10:53 PM 39.9 °F 37.8 °F 39.0 °F 97% 30.21 in 6.0 mi South 3.5 mph - N/A   Mostly Cloudy
11:53 PM 39.0 °F - 37.9 °F 96% 30.22 in 7.0 mi Calm Calm - N/A   Clear